Probability
0 0 0 0 0 0 0 0 0 0 0 0 0 0 0 0 0 0 0 0 0 0 0 0 0 0 0 0 0 0 0 0 0 0 0 0 0 0 0 0 0 0 0 0
0 0 0 0 0 0 0 0 0 0 0 0 0 0 0 0 0 0 0 0 0 0 0 0 0 0 0 0 0 0 0 0 0 0 0 0 0 0 0 0 0 0 0 0
0 0 0 0 0 0 0 0 0 0 0 0 0 0 0 0 0 0 0 0 0 0 0 0 0 0 0 0 0 0 0 0 0 0 0 0 0 0 0 0 0 0 0 0
0 0 0 0 0 0 0 0 0 0 0 0 0 0 0 0 0 0 0 0 0 0 0 0 0 0 1 1 1 1 0 0 0 0 0 0 0 0 0 0 0 0 0 0
0 0 0 0 0 0 0 0 0 0 0 0 0 0 0 0 0 0 0 0 0 0 0 0 0 1 2 3 2 2 1 0 0 0 0 0 0 0 0 0 0 0 0 0
0 0 0 0 0 0 0 0 0 0 0 0 0 0 0 0 0 0 0 0 0 0 0 0 0 2 3 4 4 3 2 1 0 0 0 0 0 0 0 0 0 0 0 0
0 0 0 0 0 0 0 0 0 0 0 0 0 0 0 0 0 0 0 0 0 0 0 0 0 1 2 3 3 3 2 1 0 0 0 0 0 0 0 0 0 0 0 0
0 0 0 0 0 0 0 0 0 0 0 0 0 0 0 0 0 0 0 0 0 0 0 0 0 0 0 1 1 1 1 1 0 0 0 0 0 0 0 0 0 0 0 0
0 0 0 0 0 0 0 0 0 0 0 0 0 0 0 0 0 0 0 0 0 0 0 0 0 1 1 0 0 0 0 0 0 0 0 0 0 0 0 0 0 0 0 0
0 0 0 0 0 0 0 0 0 0 0 0 0 0 0 0 0 0 0 0 0 0 0 0 0 1 2 1 0 0 1 1 1 0 0 0 0 0 0 0 0 0 0 0
0 0 0 0 0 0 0 0 0 0 0 0 0 0 0 0 0 0 0 0 0 0 0 0 1 2 2 1 0 0 1 2 2 1 1 0 0 0 0 0 0 0 0 0
0 0 0 0 0 0 0 0 0 0 0 0 0 0 0 0 0 0 0 1 0 0 0 1 2 3 3 3 1 1 2 3 4 3 3 1 1 0 0 0 0 0 0 0
0 0 0 0 0 0 0 0 0 0 0 0 0 0 0 0 0 0 0 0 0 0 1 2 3 3 4 4 3 2 2 3 4 5 5 3 2 1 1 0 0 0 0 0
0 0 0 0 0 0 0 0 0 0 0 0 0 0 0 0 0 0 0 0 0 0 1 3 3 3 3 3 2 1 1 2 3 4 4 4 3 2 1 0 0 0 0 0
0 0 0 0 0 0 0 0 0 0 0 0 0 0 0 0 0 0 0 0 0 1 2 3 3 3 2 2 1 0 0 1 2 2 2 2 3 2 1 0 0 0 0 0
0 0 0 0 0 0 0 0 0 0 0 0 0 0 0 0 0 0 0 0 0 1 2 2 2 1 1 1 0 0 0 1 2 1 0 1 2 2 1 0 0 0 0 0
0 0 0 0 0 0 0 0 0 0 0 0 0 0 0 0 0 0 0 0 0 0 1 1 1 0 0 0 0 0 0 1 1 1 0 0 1 2 2 1 0 0 0 0
0 0 0 0 0 0 0 0 0 0 0 0 0 0 0 0 0 0 0 0 0 0 0 0 0 0 0 0 0 1 0 0 0 0 0 0 0 1 2 1 0 0 0 0
0 0 0 0 0 0 0 0 0 0 0 0 0 0 0 0 0 0 0 0 0 0 0 0 0 0 0 0 0 0 0 0 0 0 0 0 0 0 1 1 0 0 0 0
0 0 0 0 0 0 0 0 0 0 0 0 0 0 0 0 0 0 0 0 0 0 0 0 0 0 0 0 0 0 0 0 0 0 0 0 0 0 0 0 0 0 0 0
0 0 0 0 0 0 0 0 0 0 0 0 0 0 0 0 0 0 0 0 0 0 0 0 0 0 0 0 0 0 0 0 0 1 1 1 0 0 0 0 0 1 0 0
0 0 0 0 0 0 0 0 0 0 0 0 0 0 0 0 0 0 0 0 0 0 0 0 0 0 0 0 0 0 0 0 1 2 2 2 1 0 0 0 0 0 0 0
0 0 0 0 0 0 0 0 0 0 0 0 0 0 0 0 0 0 0 0 0 0 0 0 0 0 0 0 0 0 1 0 1 2 3 3 1 0 0 0 0 0 0 0
0 0 0 0 0 0 0 0 0 0 0 0 0 0 0 0 0 0 0 0 0 0 0 0 0 0 0 0 0 0 0 0 0 1 2 3 2 1 0 0 0 0 0 0
0 0 0 0 0 0 0 0 0 0 0 0 0 0 0 0 0 0 0 0 0 0 0 0 0 0 0 0 0 0 0 0 0 1 2 3 3 1 0 0 0 0 0 0
0 0 0 0 0 0 0 0 0 0 0 0 0 0 0 0 0 0 0 0 0 0 0 0 0 0 0 0 0 0 0 0 1 2 3 4 3 2 1 0 0 0 0 0
Wind_Speed
6 7 6 7 7 5 5 6 5 3 4 6 6 5 4 6 8 8 7 7 7 7 6 5 5 5 4 4 4 4 4 4 3 2 2 2 2 2 2 2 3 3 4 4
7 7 5 4 6 7 7 7 5 3 3 5 5 5 5 6 7 7 7 8 7 7 7 6 6 5 5 5 4 4 4 4 3 2 1 1 2 2 2 2 2 3 3 3
7 2 4 6 7 8 8 7 5 4 3 5 5 6 6 6 7 6 6 6 7 7 7 7 7 6 6 5 5 4 4 4 4 3 2 2 2 2 2 2 2 2 2 2
5 3 5 7 8 8 6 4 5 5 6 4 6 5 5 6 6 6 6 6 6 6 6 6 6 6 6 5 5 5 5 4 4 3 2 2 1 1 1 1 1 1 2 2
4 4 5 6 6 7 3 4 5 6 6 6 6 7 3 5 6 6 6 6 6 6 6 6 6 6 6 5 5 4 5 4 3 3 2 2 1 1 1 0 1 1 1 1
2 2 3 2 2 4 5 6 5 5 6 8 7 7 3 3 4 4 5 6 6 6 6 6 6 6 5 5 5 4 5 4 3 3 3 2 2 1 1 0 0 0 0 0
4 4 3 3 4 6 7 6 5 6 6 5 4 7 3 2 0 3 4 4 5 6 6 6 6 6 5 5 5 5 5 4 4 3 3 3 2 2 1 1 1 1 1 0
5 6 5 4 5 5 8 8 5 4 4 3 5 7 1 3 1 1 2 3 3 5 5 6 6 6 6 6 5 5 5 4 4 4 3 3 2 2 1 1 1 1 1 1
5 4 3 1 2 5 6 7 4 5 5 5 5 3 3 2 1 1 2 3 3 3 5 5 6 6 6 6 6 5 5 4 4 4 4 3 2 2 2 2 1 1 1 1
4 4 3 3 4 1 4 4 4 6 5 6 5 6 3 3 3 2 2 2 2 3 3 4 5 5 5 5 5 5 5 5 4 3 3 2 2 2 2 2 1 1 1 1
4 5 3 5 6 5 5 6 5 5 5 6 4 1 3 0 2 3 3 2 1 2 3 3 4 4 4 4 4 5 4 4 4 3 3 2 2 2 2 2 2 2 2 2
2 5 4 3 2 1 5 6 7 6 6 7 6 0 4 2 1 2 2 2 2 2 2 3 3 4 4 4 4 4 4 4 4 3 3 3 2 2 2 2 2 2 2 2
3 5 4 4 5 4 4 4 6 7 6 7 7 2 4 2 1 1 2 2 2 3 3 3 3 3 3 3 3 3 3 3 3 3 3 3 2 2 2 2 2 2 2 2
4 6 7 6 2 2 4 5 6 8 8 8 7 5 2 2 1 0 1 2 2 3 2 2 2 2 2 3 3 3 3 2 2 3 3 2 2 2 2 2 2 2 2 2
4 6 5 5 3 3 4 6 6 9 10 9 6 6 5 4 3 2 2 2 2 2 2 2 1 1 2 2 2 2 3 2 2 2 2 2 2 2 1 2 2 2 2 2
4 5 4 4 3 3 5 7 8 9 9 9 9 8 5 3 2 2 3 3 3 2 2 1 1 1 1 1 1 2 3 3 3 3 2 1 1 2 2 2 2 2 2 2
4 5 5 5 2 4 6 6 7 6 6 7 9 6 3 2 3 4 3 4 4 3 2 2 2 2 1 1 1 2 2 3 3 3 2 2 2 2 2 2 2 2 2 2
5 6 4 4 3 7 1 2 2 5 5 5 5 4 3 3 2 2 2 3 3 3 3 2 2 2 2 1 1 2 2 3 3 3 2 2 1 2 1 2 2 2 2 2
4 5 4 4 6 6 2 1 2 4 4 3 5 4 2 0 1 2 1 2 2 2 2 2 2 2 2 2 2 2 2 2 2 2 2 2 2 2 2 2 2 2 2 2
2 4 5 5 6 5 0 1 2 4 4 1 2 3 1 2 3 1 1 1 1 1 1 2 2 2 2 2 2 3 2 2 2 2 2 2 2 2 2 2 2 2 2 3
4 4 6 7 7 4 2 1 3 5 1 2 0 1 2 2 3 3 1 0 0 1 1 2 2 2 2 2 3 3 3 2 2 2 2 2 2 2 2 2 2 2 2 2
5 5 6 5 7 4 3 3 3 2 3 1 1 0 1 1 3 2 1 1 0 1 2 2 2 2 2 2 3 3 3 2 2 2 2 2 2 2 2 2 2 2 2 3
5 3 2 4 2 2 3 1 1 2 1 1 0 0 1 1 1 2 1 1 1 0 1 2 2 2 1 2 3 3 2 2 2 2 2 2 2 2 2 2 2 2 2 2
4 2 4 4 4 2 3 3 2 1 1 1 1 1 1 0 0 1 1 1 1 0 0 1 2 2 2 1 2 2 2 2 3 3 3 2 2 2 2 1 1 2 1 2
4 5 5 6 4 3 4 5 4 2 1 1 1 1 1 1 1 1 1 1 1 0 0 1 2 2 2 2 2 2 2 3 3 3 2 2 2 2 2 1 1 2 2 2
6 7 7 6 5 4 4 4 4 3 3 2 2 2 1 1 1 1 1 1 1 1 1 1 2 2 2 2 2 2 2 3 3 2 2 1 1 1 2 2 2 1 2 3
Wind_Direction
183 196 198 200 210 219 209 211 207 192 172 204 219 228 216 190 202 205 199 195 193 188 178 172 169 162 158 150 144 134 131 125 121 115 110 100 94 83 72 62 60 64 64 63
189 205 208 212 202 205 207 211 204 174 174 216 227 240 226 208 211 213 212 203 199 193 183 176 175 169 170 161 157 150 146 140 134 121 111 107 101 89 70 66 63 59 68 69
212 176 185 198 201 211 216 224 216 208 187 207 234 228 211 201 208 209 217 215 205 200 195 182 180 177 175 174 172 167 162 154 148 138 123 120 118 124 111 93 70 51 53 65
212 192 192 204 208 221 221 215 217 211 221 217 229 249 202 192 197 207 208 203 203 198 196 188 181 180 181 182 182 177 168 161 152 150 155 160 160 136 86 78 78 69 54 50
187 188 210 217 213 217 221 182 197 218 240 246 224 252 205 181 213 216 208 201 198 196 196 192 187 186 183 176 181 182 173 165 159 162 155 184 162 122 105 110 86 56 61 36
197 195 228 230 179 194 173 172 179 213 236 243 227 238 239 192 225 212 200 200 195 191 188 191 186 181 176 168 171 178 178 169 170 178 177 188 170 165 163 188 229 255 114 10
197 192 175 183 173 175 204 208 212 211 215 233 190 233 247 78 259 236 211 199 191 185 182 180 180 178 173 168 168 174 176 177 178 186 190 195 192 201 202 216 238 268 260 278
215 202 182 208 225 212 217 227 241 251 242 231 195 228 154 78 46 239 191 184 178 179 178 177 179 178 174 173 174 175 177 180 184 198 202 204 196 219 231 246 255 266 292 297
233 208 149 224 247 224 211 220 249 272 270 261 216 209 189 128 151 128 143 156 170 176 177 177 176 175 174 176 179 180 179 180 188 204 210 210 209 222 240 252 252 259 274 292
261 244 182 168 170 159 261 204 204 230 246 251 232 228 230 188 211 191 182 188 183 177 168 169 171 173 174 176 179 177 181 184 185 195 206 214 218 221 235 242 249 259 273 282
249 242 201 195 211 210 186 195 222 236 255 266 259 197 55 73 196 206 203 189 176 171 165 160 164 168 169 169 172 174 180 182 180 187 193 194 202 211 216 231 247 257 269 269
231 254 239 209 112 274 242 230 223 237 236 246 268 273 87 76 93 193 189 161 138 137 140 145 150 157 164 166 168 173 181 182 183 187 191 194 192 201 211 227 240 248 263 266
198 241 242 187 176 177 212 225 236 246 254 245 247 197 100 91 66 141 162 151 137 127 122 127 136 148 162 165 169 171 175 178 175 181 188 189 190 198 215 233 243 249 261 263
248 243 251 261 295 220 228 228 225 228 241 246 249 262 265 273 273 202 174 172 145 132 130 125 130 137 150 170 171 169 167 161 165 174 181 187 192 199 213 226 239 255 262 268
246 250 244 268 280 252 259 254 229 234 247 258 265 270 280 267 247 217 190 177 168 155 145 142 145 141 146 154 171 169 162 159 162 166 177 192 198 200 210 224 238 245 258 267
244 252 242 240 228 232 260 260 239 241 252 251 259 273 290 283 229 207 200 197 203 198 195 192 185 158 167 163 173 175 168 166 166 169 173 173 195 198 211 226 237 250 262 268
222 238 249 251 224 251 255 254 232 219 234 246 255 266 255 237 222 214 207 212 214 211 211 213 212 199 200 204 191 180 172 168 168 166 164 172 198 208 220 227 232 248 258 268
230 229 245 261 243 247 360 47 235 226 260 261 268 279 267 266 258 226 213 220 221 213 214 220 219 208 204 197 193 174 169 172 175 175 176 187 216 226 230 236 247 256 259 259
241 225 230 240 251 257 250 199 232 231 257 279 261 267 281 331 187 193 202 236 238 225 221 213 208 201 193 180 178 174 170 176 181 190 198 204 216 220 227 234 248 259 263 263
187 225 234 234 249 257 342 43 277 237 243 22 267 258 224 204 230 198 83 281 235 214 212 202 194 193 188 176 174 181 182 185 201 216 221 218 222 224 234 241 248 255 260 263
185 200 226 237 246 259 34 37 199 222 353 48 291 218 185 230 333 27 59 31 171 181 179 184 191 194 193 181 184 191 195 210 217 222 223 220 225 235 243 246 247 253 258 262
215 209 215 226 236 241 105 157 207 356 37 49 44 148 191 16 41 53 63 43 102 165 175 182 188 197 200 194 197 198 208 221 226 219 223 229 234 243 250 251 253 258 265 265
227 235 238 233 253 36 156 182 10 2 18 35 42 121 140 91 47 37 42 32 32 121 167 173 183 195 205 208 214 215 208 210 219 223 224 230 236 238 236 239 252 256 261 272
205 220 226 237 243 239 231 239 253 247 284 326 314 160 175 180 35 353 3 12 14 297 166 178 186 200 214 223 230 236 212 212 213 222 227 225 231 240 226 232 245 257 260 273
216 194 219 238 250 251 236 239 243 242 274 283 265 229 223 240 242 291 317 329 332 318 252 228 225 230 237 231 229 231 214 212 218 220 226 231 236 249 243 240 262 258 259 286
205 209 216 234 223 228 232 226 230 233 237 235 229 230 234 242 250 268 286 300 309 285 262 256 257 254 247 236 236 235 223 220 221 219 221 232 238 252 262 258 260 297 281 291